Location: Balsareny
(41.8670°N, 1.8830°E)
Time: 15:00:28
(UTC+01:00)

Envisat - Pass Details

Date: 09 December 2021
Orbit: 764 x 766 km, 98.2° (Epoch: 19 January)

Event Time Altitude Azimuth Distance (km) Brightness Sun altitude
Rises 06:46:00 0° 3° (N) 3,241 6.1 -14.8°
Reaches altitude 10° 06:48:31 10° 353° (N) 2,310 5.2 -14.4°
Maximum altitude 06:52:58 31° 292° (WNW) 1,309 3.6 -13.6°
Drops below altitude 10° 06:57:23 10° 231° (SW) 2,296 5.2 -12.8°
Sets 06:59:53 0° 222° (SW) 3,217 6.0 -12.4°
